Weather History for ESGP - May, 2014

Change the Weather History Date:

Sunday, May 11, 2014

  Actual Average Record
Temperature  
Mean Temperature 52 °F -  
Max Temperature 57 °F - - ()
Min Temperature 48 °F - - ()
Degree Days  
Heating Degree Days 12    
Growing Degree Days 2 (Base 50)    
Moisture  
Dew Point 47 °F    
Average Humidity 86    
Maximum Humidity 94    
Minimum Humidity 67    
Precipitation  
Precipitation 0.00 in - - ()
Sea Level Pressure  
Sea Level Pressure 29.34 in    
Wind  
Wind Speed 6 mph ()    
Max Wind Speed 13 mph    
Max Gust Speed -    
Visibility 6.0 miles    
Events Rain    
T = Trace of Precipitation, MM = Missing Value Source: Averaged Metar Reports

Daily Weather History Graph

Daily Weather History Graph

Search for Another Location

Airport or City:

Trip Planner

Search our weather history database for the weather conditions in past years. The results will help you decide how hot, cold, wet, or windy it might be!

Date:

Astronomy

May. 11, 2014 Rise Set
Actual Time 4:58 AM CEST 9:20 PM CEST
Civil Twilight 4:05 AM CEST 10:13 PM CEST
Nautical Twilight 2:41 AM CEST 11:40 PM CEST
Astronomical Twilight Sun does not rise Sun does not rise
Moon 5:15 PM CEST (5/11) 3:45 AM CEST (5/11)
Length of Visible Light 18h 07m
Length of Day
16h 22m
Waxing Gibbous, 87% of the Moon is Illuminated
May 11
Waxing Gibbous
May 14
Full
May 21
Last Quarter
May 28
New
Jun 5
First Quarter

Hourly Weather History & Observations

Time (CEST) Temp. Dew Point Humidity Pressure Visibility Wind Dir Wind Speed Gust Speed Precip Events Conditions
12:20 AM 50.0 °F 44.6 °F 82% 29.47 in 6.2 mi ESE 6.9 mph - N/A   Mostly Cloudy
12:50 AM 50.0 °F 44.6 °F 82% 29.47 in 6.2 mi ESE 6.9 mph - N/A   Light Drizzle
1:20 AM 50.0 °F 44.6 °F 82% 29.44 in 6.2 mi ESE 5.8 mph - N/A   Light Drizzle
1:50 AM 50.0 °F 44.6 °F 82% 29.44 in 6.2 mi East 5.8 mph - N/A   Drizzle
2:20 AM 48.2 °F 46.4 °F 93% 29.42 in 6.2 mi East 5.8 mph - N/A Rain Light Rain
2:50 AM 48.2 °F 46.4 °F 93% 29.42 in 6.2 mi East 5.8 mph - N/A Rain Light Rain
3:20 AM 48.2 °F 46.4 °F 93% 29.39 in 5.6 mi East 5.8 mph - N/A Rain Rain
3:50 AM 48.2 °F 46.4 °F 93% 29.39 in 6.2 mi East 5.8 mph - N/A Rain Light Rain
4:20 AM 48.2 °F 46.4 °F 93% 29.36 in 6.2 mi East 6.9 mph - N/A Rain Light Rain
4:50 AM 48.2 °F 46.4 °F 93% 29.36 in 6.2 mi East 8.1 mph - N/A   Drizzle
5:20 AM 48.2 °F 46.4 °F 93% 29.36 in 6.2 mi East 6.9 mph - N/A   Light Drizzle
5:50 AM 48.2 °F 46.4 °F 93% 29.33 in 6.2 mi East 9.2 mph - N/A   Drizzle
6:20 AM 48.2 °F 44.6 °F 87% 29.33 in 3.7 mi East 8.1 mph - N/A Rain Light Rain
6:50 AM 48.2 °F 46.4 °F 93% 29.33 in 5.0 mi East 8.1 mph - N/A   Drizzle
7:20 AM 48.2 °F 46.4 °F 93% 29.33 in 5.6 mi East 6.9 mph - N/A   Overcast
7:50 AM 48.2 °F 46.4 °F 93% 29.30 in 6.2 mi East 8.1 mph - N/A   Overcast
8:20 AM 50.0 °F 46.4 °F 87% 29.30 in 6.2 mi ESE 6.9 mph - N/A   Overcast
8:50 AM 50.0 °F 48.2 °F 94% 29.30 in 6.2 mi ESE 8.1 mph - N/A   Overcast
9:20 AM 50.0 °F 48.2 °F 94% 29.30 in 6.2 mi East 9.2 mph - N/A Rain Light Rain
9:50 AM 50.0 °F 48.2 °F 94% 29.30 in 6.2 mi ESE 6.9 mph - N/A Rain Light Rain
10:20 AM 51.8 °F 48.2 °F 88% 29.30 in 6.2 mi ESE 5.8 mph - N/A Rain Light Rain
10:50 AM 51.8 °F 48.2 °F 88% 29.30 in 4.3 mi ESE 3.5 mph - N/A Rain Light Rain
11:20 AM 51.8 °F 50.0 °F 94% 29.30 in 6.2 mi SE 3.5 mph - N/A   Drizzle
11:50 AM 51.8 °F 48.2 °F 88% 29.30 in 6.2 mi South 9.2 mph - N/A Rain Light Rain
12:20 PM 53.6 °F 50.0 °F 88% 29.30 in 6.2 mi South 6.9 mph - N/A   Mostly Cloudy
12:50 PM 55.4 °F 48.2 °F 77% 29.30 in 6.2 mi SSW 6.9 mph - N/A   Mostly Cloudy
1:20 PM 55.4 °F 48.2 °F 77% 29.30 in 6.2 mi SSW 10.4 mph - N/A   Mostly Cloudy
1:50 PM 57.2 °F 48.2 °F 72% 29.30 in 6.2 mi SSW 9.2 mph - N/A   Scattered Clouds
2:20 PM 57.2 °F 48.2 °F 72% 29.30 in 6.2 mi SSW 9.2 mph - N/A   Scattered Clouds
2:50 PM 57.2 °F 48.2 °F 72% 29.30 in 6.2 mi SSW 9.2 mph - N/A   Scattered Clouds
3:20 PM 57.2 °F 48.2 °F 72% 29.30 in 6.2 mi SW 10.4 mph - N/A   Scattered Clouds
3:50 PM 57.2 °F 46.4 °F 67% 29.30 in 6.2 mi SW 10.4 mph - N/A   Mostly Cloudy
4:50 PM 55.4 °F 48.2 °F 77% 29.33 in 6.2 mi SSW 12.7 mph - N/A   Scattered Clouds
5:20 PM 55.4 °F 46.4 °F 72% 29.33 in 6.2 mi SSW 9.2 mph - N/A   Mostly Cloudy
5:50 PM 55.4 °F 48.2 °F 77% 29.33 in 6.2 mi SSW 8.1 mph - N/A   Mostly Cloudy
6:20 PM 53.6 °F 48.2 °F 82% 29.33 in 6.2 mi SSW 4.6 mph - N/A   Partly Cloudy
6:50 PM 53.6 °F 48.2 °F 82% 29.33 in 6.2 mi SSW 3.5 mph - N/A   Mostly Cloudy
7:20 PM 53.6 °F 48.2 °F 82% 29.33 in 6.2 mi Variable 2.3 mph - N/A   Scattered Clouds
7:50 PM 53.6 °F 48.2 °F 82% 29.33 in 6.2 mi SW 4.6 mph - N/A Rain Light Rain
8:20 PM 53.6 °F 48.2 °F 82% 29.33 in 6.2 mi South 6.9 mph - N/A   Mostly Cloudy
8:50 PM 51.8 °F 48.2 °F 88% 29.33 in 6.2 mi South 4.6 mph - N/A   Overcast
9:20 PM 51.8 °F 50.0 °F 94% 29.36 in - SSW 9.2 mph - N/A Rain Rain
9:50 PM 51.8 °F 50.0 °F 94% 29.36 in 3.7 mi SSW 4.6 mph - N/A Rain Light Rain
10:20 PM 51.8 °F 50.0 °F 94% 29.36 in 6.2 mi SSE 3.5 mph - N/A   Overcast
10:50 PM 50.0 °F 48.2 °F 94% 29.36 in 6.2 mi SE 3.5 mph - N/A   Mostly Cloudy
11:20 PM 50.0 °F 48.2 °F 94% 29.36 in 6.2 mi SE 3.5 mph - N/A   Overcast
11:50 PM 50.0 °F 48.2 °F 94% 29.36 in 6.2 mi SE 3.5 mph - N/A Rain Light Rain